This is the latest recevied weather packets stored in our database for station/object DC4AT. If no packets are shown the sender has not sent any weather packets the latest 10 day(s).
| Time | Temp. | Humidity | Pressure | Rain* | Wind** | Luminosity | Snow |
|---|---|---|---|---|---|---|---|
| 1787886455 | 20.56° C | 81% | 1009 hPa | 0 mm | - | 0 W/m² | - |
| 1787885855 | 19.44° C | 83% | 1009.3 hPa | 0 mm | - | 0 W/m² | - |
| 1787885255 | 19.44° C | 83% | 1009.8 hPa | 0 mm | - | 0 W/m² | - |
| 1787884655 | 19.44° C | 83% | 1010.1 hPa | 0 mm | - | 0 W/m² | - |
| 1787884055 | 19.44° C | 83% | 1010.1 hPa | 0 mm | - | 0 W/m² | - |
| 1787883455 | 20° C | 82% | 1010 hPa | 0 mm | - | 0 W/m² | - |
| 1787882855 | 20° C | 80% | 1010.1 hPa | 0 mm | - | 0 W/m² | - |
| 1787882255 | 21.11° C | 77% | 1010.1 hPa | 0 mm | - | 0 W/m² | - |
| 1787881655 | 21.11° C | 74% | 1009.4 hPa | 0 mm | - | 0 W/m² | - |
| 1787881055 | 21.11° C | 74% | 1008.8 hPa | 0 mm | - | 0 W/m² | - |
| 1787880455 | 21.11° C | 74% | 1008.8 hPa | 0 mm | - | 0 W/m² | - |
| 1787879855 | 21.11° C | 74% | 1008.8 hPa | 0 mm | - | 0 W/m² | - |
| 1787879255 | 21.11° C | 73% | 1008.6 hPa | 0 mm | - | 0 W/m² | - |
| 1787878655 | 21.67° C | 73% | 1008.7 hPa | 0 mm | - | 0 W/m² | - |
| 1787878055 | 21.67° C | 72% | 1008.8 hPa | 0 mm | - | 0 W/m² | - |
| 1787877455 | 21.67° C | 73% | 1008.6 hPa | 0 mm | - | 0 W/m² | - |
| 1787876856 | 21.67° C | 73% | 1008.8 hPa | 0 mm | - | 0 W/m² | - |
| 1787876256 | 21.67° C | 73% | 1009.1 hPa | 0 mm | - | 0 W/m² | - |
| 1787875656 | 21.67° C | 72% | 1009.2 hPa | 0 mm | - | 0 W/m² | - |
| 1787875056 | 21.67° C | 72% | 1009.2 hPa | 0 mm | - | 0 W/m² | - |
| 1787874456 | 21.67° C | 71% | 1009.5 hPa | 0 mm | - | 0 W/m² | - |
| 1787873856 | 21.67° C | 71% | 1009.7 hPa | 0 mm | - | 0 W/m² | - |
| 1787873256 | 21.67° C | 71% | 1009.8 hPa | 0 mm | - | 0 W/m² | - |
| 1787872656 | 21.67° C | 71% | 1010 hPa | 0 mm | - | 0 W/m² | - |
| 1787872056 | 22.22° C | 71% | 1010.2 hPa | 0 mm | - | 0 W/m² | - |
* Rain latest hour (hover to see other rain measurements)
** Current wind speed in m/s (hover to see current wind gust speed)